Simultaneous Nadir Overpasses (SNOs) Predictions

Prediction of SNOs between TERRA and METOP-C Satellite Orbit:

Table of predicted SNOs for the next 14.0 days since TLE Epoch: 7/2/2022
Index Date (TERRA) Time (TERRA) Lat,Lon (TERRA) SZA (TERRA ) Date (METOP-C) Time (METOP-C) Lat,Lon (METOP-C) SZA (METOP-C ) Distance(km) Time Diff (sec)
1 07/02/2022 09:59:13 -81.18,-108.89 119.69 07/02/2022 09:58:54 -81.17,-109.01 119.72 2.24 19
2 07/02/2022 10:48:39 81.18, 58.85 60.33 07/02/2022 10:49:32 81.19, 58.95 60.37 1.99 53
3 07/05/2022 05:33:21 -81.18, -42.42 119.47 07/05/2022 05:33:15 -81.18, -42.47 119.48 0.98 6
4 07/05/2022 06:22:46 81.21, 125.66 60.60 07/05/2022 06:23:53 81.20, 125.47 60.61 3.36 67
5 07/08/2022 00:18:04 81.16,-143.94 60.76 07/08/2022 00:16:57 81.16,-144.05 60.72 1.81 67
6 07/08/2022 01:07:30 -81.18, 24.00 119.20 07/08/2022 01:07:37 -81.18, 24.04 119.19 0.82 7
7 07/10/2022 19:52:12 81.17, -77.24 61.12 07/10/2022 19:51:18 81.17, -77.18 61.10 1.08 54
8 07/10/2022 20:41:38 -81.19, 90.72 118.83 07/10/2022 20:41:58 -81.19, 90.90 118.80 3.13 20
9 07/13/2022 15:26:20 81.16, -10.97 61.47 07/13/2022 15:25:40 81.16, -11.10 61.44 2.34 40



Historial Predications of SNOs between TERRA and METOP-C
